Time_in_sec,gx,gy,gz
1323444507.50149894,-0.01434785,0.01601109,-0.99976887
1323444507.54864550,-0.01422718,0.01596481,-0.99977133
1323444507.58899260,-0.01418300,0.01580268,-0.99977453
1323444507.64992118,-0.01412995,0.01561295,-0.99977827
1323444507.68955779,-0.01405030,0.01541851,-0.99978241
1323444507.74850702,-0.01409509,0.01540859,-0.99978193
1323444507.80052257,-0.01420660,0.01558721,-0.99977758
1323444507.84899807,-0.01448630,0.01555456,-0.99977408
1323444507.89782929,-0.01440676,0.01576066,-0.99977200
1323444507.94923687,-0.01439849,0.01586936,-0.99977040
1323444507.98854113,-0.01461551,0.01588491,-0.99976700
1323444508.04979348,-0.01386591,0.01357002,-0.99981178
1323444508.08864427,-0.01398364,0.01359974,-0.99980973
1323444508.14178967,-0.01408821,0.01365470,-0.99980752
1323444508.20153356,-0.01421136,0.01375774,-0.99980436
1323444508.24919271,-0.01422422,0.01407377,-0.99979978
1323444508.30054593,-0.01424718,0.01463825,-0.99979135
1323444508.33766484,-0.01442050,0.01457939,-0.99978972
1323444508.38965225,-0.01451043,0.01471892,-0.99978638
1323444508.44853044,-0.01469095,0.01477397,-0.99978293
1323444508.48951912,-0.01465554,0.01477703,-0.99978340
1323444508.53769374,-0.01613630,0.01482433,-0.99975990
1323444508.60153174,-0.01606954,0.01487556,-0.99976022
1323444508.64166808,-0.01603300,0.01502077,-0.99975863
1323444508.68964696,-0.01602536,0.01521584,-0.99975580
1323444508.74977994,-0.01608338,0.01527614,-0.99975395
1323444508.79763436,-0.01610853,0.01535458,-0.99975235
1323444508.84854126,-0.01591877,0.01528970,-0.99975638
1323444508.90149951,-0.01586075,0.01539222,-0.99975573
1323444508.94950223,-0.01592785,0.01536829,-0.99975503
1323444508.99750304,-0.01585037,0.01545857,-0.99975487
1323444509.04905224,-0.01537100,0.01562157,-0.99975982
1323444509.09807396,-0.01530733,0.01603518,-0.99975425
1323444509.14155650,-0.01541668,0.01616556,-0.99975047
1323444509.18956637,-0.01551647,0.01626716,-0.99974728
1323444509.24049044,-0.01568181,0.01644602,-0.99974177
1323444509.28929615,-0.01544499,0.01626102,-0.99974848
1323444509.34184933,-0.01543945,0.01668957,-0.99974151
1323444509.38894892,-0.01557645,0.01692272,-0.99973546
1323444509.44150686,-0.01563271,0.01711214,-0.99973136
1323444509.49148464,-0.01573853,0.01723917,-0.99972752
1323444509.54052281,-0.01498402,0.01725605,-0.99973882
1323444509.58855915,-0.01504886,0.01767698,-0.99973049
1323444509.64856172,-0.01505848,0.01773162,-0.99972938
1323444509.68923306,-0.01520958,0.01765054,-0.99972853
1323444509.74048066,-0.01529566,0.01785283,-0.99972362
1323444509.78923392,-0.01507823,0.01711218,-0.99973988
1323444509.84050679,-0.01499335,0.01705193,-0.99974218
1323444509.89021778,-0.01503861,0.01686489,-0.99974468
1323444509.94054341,-0.01511049,0.01686913,-0.99974352
1323444509.98861670,-0.01521311,0.01711039,-0.99973786
1323444510.03919697,-0.01463932,0.01714313,-0.99974587
1323444510.08872557,-0.01458038,0.01698989,-0.99974935
1323444510.14210558,-0.01488530,0.01701439,-0.99974444
1323444510.18877935,-0.01468740,0.01698865,-0.99974780
1323444510.23835874,-0.01461717,0.01704016,-0.99974795
1323444510.29007769,-0.01386018,0.01674850,-0.99976366
1323444510.34165192,-0.01395469,0.01695715,-0.99975883
1323444510.38855553,-0.01389176,0.01701346,-0.99975875
1323444510.44049835,-0.01389055,0.01705533,-0.99975806
1323444510.48863792,-0.01378309,0.01712012,-0.99975843
1323444510.54195642,-0.01281445,0.01653547,-0.99978116
1323444510.58848834,-0.01266616,0.01662493,-0.99978157
1323444510.64048958,-0.01277775,0.01673678,-0.99977828
1323444510.69283104,-0.01289811,0.01662632,-0.99977858
1323444510.73826456,-0.01286897,0.01647885,-0.99978139
1323444510.78868890,-0.01200734,0.01591506,-0.99980125
1323444510.84057236,-0.01206630,0.01628211,-0.99979463
1323444510.88851619,-0.01219925,0.01602479,-0.99979717
1323444510.94182038,-0.01219414,0.01619121,-0.99979455
1323444510.98874831,-0.01226942,0.01616838,-0.99979400
1323444511.04054976,-0.01157417,0.01498386,-0.99982075
1323444511.08980513,-0.01166204,0.01501447,-0.99981926
1323444511.14167047,-0.01133575,0.01491704,-0.99982448
1323444511.18863869,-0.01129586,0.01491741,-0.99982492
1323444511.24047780,-0.01136540,0.01487490,-0.99982477
1323444511.28863025,-0.01117847,0.01384619,-0.99984165
1323444511.33771253,-0.01117866,0.01410753,-0.99983799
1323444511.38954496,-0.01113663,0.01387316,-0.99984174
1323444511.44166732,-0.01126966,0.01385630,-0.99984049
1323444511.48849273,-0.01135798,0.01371829,-0.99984139
1323444511.54053903,-0.01030473,0.01283226,-0.99986456
1323444511.58851504,-0.01035648,0.01292650,-0.99986282
1323444511.64051819,-0.01024706,0.01305527,-0.99986227
1323444511.68850684,-0.01068260,0.01309432,-0.99985720
1323444511.74049592,-0.01074872,0.01314377,-0.99985584
1323444511.78852510,-0.00951771,0.01266278,-0.99987453
1323444511.84163523,-0.00941775,0.01268997,-0.99987513
1323444511.88953972,-0.00940076,0.01267927,-0.99987542
1323444511.94095087,-0.00953298,0.01288397,-0.99987155
1323444511.98955536,-0.00949649,0.01301463,-0.99987021
1323444512.03756928,-0.00821220,0.01228462,-0.99989082
1323444512.08850527,-0.00841955,0.01245265,-0.99988701
1323444512.14860296,-0.00852964,0.01211343,-0.99989025
1323444512.18930888,-0.00858621,0.01246411,-0.99988545
1323444512.24150014,-0.00857830,0.01246244,-0.99988554
1323444512.29113507,-0.00782427,0.01099756,-0.99990891
1323444512.34244943,-0.00807607,0.01115920,-0.99990512
1323444512.38856292,-0.00828435,0.01118166,-0.99990317
1323444512.44053984,-0.00839777,0.01136678,-0.99990013
1323444512.48897743,-0.00849730,0.01126458,-0.99990045
1323444512.54156923,-0.00894544,0.01004858,-0.99990950
1323444512.58920765,-0.00893654,0.01004860,-0.99990958
1323444512.64155960,-0.00892608,0.01008244,-0.99990933
1323444512.68967748,-0.00879573,0.01007572,-0.99991055
1323444512.74071813,-0.00895463,0.01004838,-0.99990942
1323444512.78935313,-0.00851312,0.00996402,-0.99991412
1323444512.84191370,-0.00858694,0.00991740,-0.99991395
1323444512.90051913,-0.00850073,0.00996101,-0.99991425
1323444512.94218493,-0.00857745,0.01015855,-0.99991161
1323444512.98857212,-0.00882229,0.01007261,-0.99991035
1323444513.04850554,-0.00812678,0.01041660,-0.99991272
1323444513.09139276,-0.00814134,0.01044182,-0.99991234
1323444513.14164805,-0.00795005,0.01059661,-0.99991225
1323444513.20151567,-0.00782010,0.01082267,-0.99991085
1323444513.24457192,-0.00786730,0.01060076,-0.99991286
1323444513.28863740,-0.00736328,0.01040114,-0.99991880
1323444513.34847999,-0.00745734,0.01054541,-0.99991659
1323444513.38851476,-0.00774808,0.01046448,-0.99991523
1323444513.44165516,-0.00773698,0.01051296,-0.99991480
1323444513.49836278,-0.00798186,0.01044369,-0.99991361
1323444513.54054618,-0.00631069,0.00960132,-0.99993399
1323444513.58854127,-0.00632439,0.00961856,-0.99993374
1323444513.64950752,-0.00641939,0.00977283,-0.99993164
1323444513.68897486,-0.00641280,0.00965354,-0.99993284
1323444513.73789096,-0.00636036,0.00961717,-0.99993353
1323444513.80166483,-0.00574726,0.00934080,-0.99993986
1323444513.84164524,-0.00590253,0.00922066,-0.99994007
1323444513.88983130,-0.00586264,0.00933685,-0.99993922
1323444513.94850397,-0.00593237,0.00952228,-0.99993706
1323444513.98910499,-0.00597957,0.00948734,-0.99993712
1323444514.04053307,-0.00524722,0.00870442,-0.99994835
1323444514.10053110,-0.00543818,0.00860048,-0.99994823
1323444514.14049673,-0.00569290,0.00864716,-0.99994641
1323444514.18851376,-0.00596841,0.00869272,-0.99994441
1323444514.24919510,-0.00635000,0.00865537,-0.99994238
1323444514.29169345,-0.00572616,0.00749304,-0.99995553
1323444514.34150720,-0.00590433,0.00765459,-0.99995327
1323444514.40056992,-0.00626516,0.00766586,-0.99995099
1323444514.43763590,-0.00650443,0.00774757,-0.99994883
1323444514.48850393,-0.00657646,0.00777301,-0.99994816
1323444514.54955864,-0.00508783,0.00692475,-0.99996308
1323444514.58851600,-0.00497557,0.00693927,-0.99996354
1323444514.63758779,-0.00504921,0.00716731,-0.99996157
1323444514.69757891,-0.00493409,0.00717906,-0.99996206
1323444514.74851847,-0.00480355,0.00715950,-0.99996283
1323444514.80052948,-0.00462150,0.00593302,-0.99997172
1323444514.84848690,-0.00456635,0.00587582,-0.99997231
1323444514.89755678,-0.00456571,0.00621426,-0.99997027
1323444514.94849753,-0.00437806,0.00635039,-0.99997025
1323444515.00054908,-0.00446423,0.00644715,-0.99996925
1323444515.04851246,-0.00370171,0.00522852,-0.99997948
1323444515.10053039,-0.00350325,0.00535614,-0.99997952
1323444515.14850903,-0.00345452,0.00556653,-0.99997854
1323444515.19750047,-0.00339037,0.00554566,-0.99997888
1323444515.24848795,-0.00327382,0.00551184,-0.99997945
1323444515.30155206,-0.00223678,0.00459658,-0.99998693
1323444515.35028625,-0.00217341,0.00467893,-0.99998669
1323444515.40155983,-0.00228201,0.00491354,-0.99998532
1323444515.44930220,-0.00221142,0.00500357,-0.99998504
1323444515.50390244,-0.00251860,0.00523821,-0.99998311
1323444515.54854631,-0.00173682,0.00377318,-0.99999137
1323444515.60564280,-0.00169430,0.00404419,-0.99999039
1323444515.64859033,-0.00150822,0.00397308,-0.99999097
1323444515.70155215,-0.00165763,0.00402448,-0.99999053
1323444515.74847746,-0.00203019,0.00412408,-0.99998944
1323444515.80052114,-0.00084085,0.00313342,-0.99999474
1323444515.84902120,-0.00098399,0.00340889,-0.99999371
1323444515.90001702,-0.00084658,0.00336308,-0.99999399
1323444515.94851470,-0.00097545,0.00322364,-0.99999433
1323444516.00557542,-0.00100590,0.00328744,-0.99999409
1323444516.05255842,-0.00039042,0.00250404,-0.99999679
1323444516.10166931,-0.00035749,0.00255302,-0.99999668
1323444516.15001178,-0.00062410,0.00261897,-0.99999638
1323444516.20055914,-0.00065616,0.00280227,-0.99999586
1323444516.24851131,-0.00092920,0.00303073,-0.99999498
1323444516.30169702,0.00030175,0.00157987,-0.99999871
1323444516.34916925,0.00010724,0.00162203,-0.99999868
1323444516.40158057,0.00021775,0.00163125,-0.99999865
1323444516.44857192,0.00010871,0.00169477,-0.99999856
1323444516.50166297,0.00026172,0.00195953,-0.99999805
1323444516.54986882,0.00096013,0.00083219,-0.99999919
1323444516.60127687,0.00108029,0.00088526,-0.99999902
1323444516.64855266,0.00088743,0.00115166,-0.99999894
1323444516.70024395,0.00067495,0.00115316,-0.99999911
1323444516.74849463,0.00084635,0.00110574,-0.99999903
1323444516.80151391,0.00138885,-0.00063646,-0.99999883
1323444516.84849238,0.00136425,-0.00034379,-0.99999901
1323444516.90055132,0.00137042,-0.00036809,-0.99999899
1323444516.94848156,0.00126343,-0.00016998,-0.99999919
1323444517.00171733,0.00126986,-0.00019054,-0.99999918
1323444517.04903030,0.00159138,-0.00143307,-0.99999771
1323444517.09774828,0.00154367,-0.00138116,-0.99999785
1323444517.14890647,0.00147844,-0.00115502,-0.99999824
1323444517.20150423,0.00153442,-0.00110780,-0.99999821
1323444517.24852252,0.00140890,-0.00116349,-0.99999833
1323444517.29763389,0.00166836,-0.00253137,-0.99999540
1323444517.34960532,0.00182859,-0.00251376,-0.99999517
1323444517.40065837,0.00202300,-0.00266243,-0.99999441
1323444517.44851232,0.00180343,-0.00241031,-0.99999547
1323444517.49761772,0.00164496,-0.00243977,-0.99999567
1323444517.54851031,0.00190512,-0.00329224,-0.99999277
1323444517.59764457,0.00210233,-0.00310861,-0.99999296
1323444517.64855552,0.00200929,-0.00311130,-0.99999314
1323444517.70054960,0.00181367,-0.00314507,-0.99999341
1323444517.74848533,0.00156087,-0.00301096,-0.99999425
1323444517.80056190,0.00225132,-0.00427229,-0.99998834
1323444517.84849620,0.00213809,-0.00415618,-0.99998908
1323444517.90005302,0.00217517,-0.00396573,-0.99998977
1323444517.94972396,0.00178569,-0.00390278,-0.99999079
1323444518.00057840,0.00171636,-0.00397858,-0.99999061
1323444518.04852152,0.00192051,-0.00455979,-0.99998776
1323444518.09755468,0.00190961,-0.00440178,-0.99998849
1323444518.15029526,0.00193328,-0.00456193,-0.99998773
1323444518.18912601,0.00193601,-0.00456884,-0.99998769
1323444518.24850488,0.00182101,-0.00429703,-0.99998911
1323444518.30315971,0.00168058,-0.00613411,-0.99997977
1323444518.34919572,0.00165440,-0.00620101,-0.99997941
1323444518.40058804,0.00154581,-0.00610085,-0.99998019
1323444518.44903493,0.00146307,-0.00588015,-0.99998164
1323444518.50055242,0.00136753,-0.00568291,-0.99998292
1323444518.54969954,0.00203190,-0.00643541,-0.99997723
1323444518.60165977,0.00207634,-0.00619448,-0.99997866
1323444518.64926791,0.00211117,-0.00591919,-0.99998025
1323444518.70454597,0.00185269,-0.00573155,-0.99998186
1323444518.74978685,0.00183323,-0.00544187,-0.99998351
1323444518.80053186,0.00152177,-0.00642776,-0.99997818
1323444518.84849000,0.00129177,-0.00645925,-0.99997830
1323444518.90156913,0.00125990,-0.00627970,-0.99997949
1323444518.94998026,0.00162048,-0.00618897,-0.99997954
1323444519.00151777,0.00127671,-0.00606064,-0.99998082
1323444519.04920268,0.00195027,-0.00696342,-0.99997385
1323444519.10311365,0.00208362,-0.00692609,-0.99997384
1323444519.14850140,0.00202909,-0.00688580,-0.99997423
1323444519.20148897,0.00197540,-0.00669466,-0.99997564
1323444519.24851060,0.00201278,-0.00671321,-0.99997544
1323444519.30153608,0.00192223,-0.00830870,-0.99996363
1323444519.34989166,0.00158965,-0.00835477,-0.99996383
1323444519.40049863,0.00146004,-0.00835774,-0.99996401
1323444519.44849586,0.00139066,-0.00814273,-0.99996588
1323444519.49856997,0.00131853,-0.00810707,-0.99996627
1323444519.54851961,0.00143295,-0.00931155,-0.99995562
1323444519.60053945,0.00129544,-0.00939910,-0.99995499
1323444519.64847279,0.00141895,-0.00927177,-0.99995601
1323444519.70052052,0.00146428,-0.00893021,-0.99995905
1323444519.74847651,0.00154528,-0.00878386,-0.99996023
1323444519.80056810,0.00199553,-0.00941712,-0.99995367
1323444519.84957027,0.00210300,-0.00924742,-0.99995503
1323444519.90054202,0.00198055,-0.00904181,-0.99995716
1323444519.94869375,0.00167671,-0.00900661,-0.99995803
1323444520.00059056,0.00176371,-0.00895535,-0.99995834
1323444520.04852939,0.00268189,-0.00915520,-0.99995449
1323444520.10067272,0.00272128,-0.00925305,-0.99995349
1323444520.14954996,0.00263522,-0.00910277,-0.99995510
1323444520.20052862,0.00267019,-0.00905886,-0.99995540
1323444520.24956703,0.00264466,-0.00897010,-0.99995627
1323444520.29765725,0.00322287,-0.00978514,-0.99994693
1323444520.34865117,0.00317446,-0.00965142,-0.99994839
1323444520.40166020,0.00310652,-0.00957466,-0.99994934
1323444520.44852471,0.00322599,-0.00947744,-0.99994988
1323444520.50053883,0.00325508,-0.00950367,-0.99994954
1323444520.54959965,0.00509620,-0.01012579,-0.99993575
1323444520.60053515,0.00530563,-0.01007381,-0.99993518
1323444520.64856052,0.00533062,-0.00989869,-0.99993680
1323444520.70059752,0.00495386,-0.00994927,-0.99993823
1323444520.74952912,0.00498117,-0.00998321,-0.99993776
1323444520.80055833,0.00538051,-0.01117746,-0.99992305
1323444520.84891224,0.00534972,-0.01119234,-0.99992305
1323444520.90162849,0.00526023,-0.01119580,-0.99992349
1323444520.94948840,0.00522593,-0.01108211,-0.99992494
1323444521.00164914,0.00487853,-0.01093674,-0.99992829
1323444521.04856133,0.00540711,-0.01200028,-0.99991337
1323444521.09804583,0.00536043,-0.01179284,-0.99991609
1323444521.14933968,0.00550654,-0.01166093,-0.99991685
1323444521.20051336,0.00539542,-0.01144954,-0.99991990
1323444521.24861836,0.00593007,-0.01272320,-0.99990147
1323444521.30166531,0.00595038,-0.01248294,-0.99990438
1323444521.34853888,0.00596899,-0.01252369,-0.99990376
1323444521.40164971,0.00597055,-0.01243178,-0.99990490
1323444521.44862390,0.00605725,-0.01237844,-0.99990504
1323444521.50053978,0.00591812,-0.01223926,-0.99990758
1323444521.54851151,0.00588365,-0.01287682,-0.99989978
1323444521.60152602,0.00575680,-0.01285971,-0.99990074
1323444521.65019894,0.00544496,-0.01289332,-0.99990205
1323444521.68855906,0.00559776,-0.01294467,-0.99990055
1323444521.74862242,0.00568943,-0.01268303,-0.99990338
1323444521.80163980,0.00429143,-0.01317377,-0.99990401
1323444521.84890366,0.00406142,-0.01318283,-0.99990485
1323444521.89817500,0.00383821,-0.01303250,-0.99990771
1323444521.94877362,0.00402262,-0.01289030,-0.99990883
1323444522.00165868,0.00402331,-0.01270495,-0.99991119
1323444522.05249763,0.00251700,-0.01320381,-0.99990966
1323444522.10063100,0.00257397,-0.01309898,-0.99991089
1323444522.15007067,0.00268439,-0.01314257,-0.99991003
1323444522.18892193,0.00268615,-0.01307958,-0.99991085
1323444522.24902296,0.00269845,-0.01306429,-0.99991102
1323444522.29809189,0.00140918,-0.01275180,-0.99991770
1323444522.34854627,0.00154424,-0.01265310,-0.99991875
1323444522.40055728,0.00140522,-0.01265503,-0.99991893
1323444522.44850969,0.00129428,-0.01272527,-0.99991819
1323444522.50064230,0.00106686,-0.01291483,-0.99991603
1323444522.54990816,-0.00081485,-0.01275538,-0.99991831
1323444522.60050678,-0.00070830,-0.01238453,-0.99992306
1323444522.64850330,-0.00106004,-0.01229529,-0.99992385
1323444522.69980097,-0.00092489,-0.01248281,-0.99992166
1323444522.74864221,-0.00077837,-0.01219597,-0.99992532
1323444522.80052042,-0.00119622,-0.01361985,-0.99990653
1323444522.84853625,-0.00128205,-0.01336094,-0.99990992
1323444522.90063667,-0.00131012,-0.01328080,-0.99991095
1323444522.94989204,-0.00133518,-0.01320026,-0.99991198
1323444523.00168347,-0.00122360,-0.01306820,-0.99991386
1323444523.04855204,-0.00123929,-0.01317602,-0.99991242
1323444523.09767413,-0.00117111,-0.01291665,-0.99991589
1323444523.14907885,-0.00129551,-0.01282148,-0.99991696
1323444523.18968201,-0.00139447,-0.01238836,-0.99992229
1323444523.24850702,-0.00153630,-0.01244367,-0.99992139
1323444523.29764843,-0.00144537,-0.01258649,-0.99991974
1323444523.34965396,-0.00145541,-0.01248844,-0.99992096
1323444523.40052843,-0.00171844,-0.01235156,-0.99992224
1323444523.45056748,-0.00192060,-0.01210972,-0.99992483
1323444523.50013614,-0.00174180,-0.01218108,-0.99992429
1323444523.54851866,-0.00165785,-0.01388867,-0.99990217
1323444523.59765077,-0.00173572,-0.01378628,-0.99990346
1323444523.64851117,-0.00191903,-0.01388202,-0.99990180
1323444523.70157218,-0.00206233,-0.01369363,-0.99990411
1323444523.74951982,-0.00209654,-0.01349335,-0.99990676
1323444523.80154967,-0.00239228,-0.01409433,-0.99989781
1323444523.84852147,-0.00241057,-0.01377057,-0.99990228
1323444523.89785767,-0.00241556,-0.01383924,-0.99990132
1323444523.94850183,-0.00259338,-0.01364958,-0.99990348
1323444523.99753976,-0.00268457,-0.01354168,-0.99990470
1323444524.04852223,-0.00357678,-0.01413072,-0.99989376
1323444524.10051346,-0.00339562,-0.01403652,-0.99989572
1323444524.14948702,-0.00349409,-0.01411964,-0.99989421
1323444524.18919611,-0.00365937,-0.01390938,-0.99989656
1323444524.24850607,-0.00388301,-0.01391513,-0.99989564
1323444524.29860473,-0.00399144,-0.01387479,-0.99989577
1323444524.34848905,-0.00399637,-0.01380847,-0.99989667
1323444524.40049863,-0.00389768,-0.01390121,-0.99989578
1323444524.45022011,-0.00402962,-0.01402727,-0.99989349
1323444524.50051951,-0.00415280,-0.01390131,-0.99989475
1323444524.54861164,-0.00410085,-0.01376260,-0.99989688
1323444524.60150290,-0.00399821,-0.01385800,-0.99989598
1323444524.64909673,-0.00398996,-0.01365413,-0.99989882
1323444524.70057297,-0.00361258,-0.01333464,-0.99990456
1323444524.74964976,-0.00393948,-0.01332657,-0.99990344
1323444524.80059528,-0.00451688,-0.01321666,-0.99990245
1323444524.84859395,-0.00464246,-0.01328877,-0.99990092
1323444524.90164709,-0.00465271,-0.01343693,-0.99989890
1323444524.95010376,-0.00492365,-0.01348408,-0.99989696
1323444525.00057936,-0.00472238,-0.01339064,-0.99989919
1323444525.04953170,-0.00526527,-0.01280679,-0.99990413
1323444525.10329032,-0.00555561,-0.01291735,-0.99990113
1323444525.14863014,-0.00583953,-0.01279034,-0.99990115
1323444525.20055389,-0.00601082,-0.01260343,-0.99990251
1323444525.24852443,-0.00588127,-0.01270459,-0.99990200
1323444525.30147767,-0.00568037,-0.01344363,-0.99989350
1323444525.34848332,-0.00570747,-0.01348083,-0.99989284
1323444525.39796185,-0.00579538,-0.01353798,-0.99989156
